Stevensville, MD

8:44 PM EDT on May 26, 2017 (GMT -0400)
Stevensville

Weather History for KW29 - February, 2014

Change the Weather History Date:

Friday, February 28, 2014

  Actual Average (KESN) Record (KESN)
Temperature  
Mean Temperature 20 °F -  
Max Temperature 26 °F 55 °F 70 °F (1954)
Min Temperature 14 °F 33 °F 10 °F (1950)
Degree Days  
Heating Degree Days 45    
Moisture  
Dew Point -5 °F    
Average Humidity 33    
Maximum Humidity 50    
Minimum Humidity 15    
Precipitation  
Precipitation 0.00 in - - ()
Sea Level Pressure  
Sea Level Pressure 30.37 in    
Wind  
Wind Speed 12 mph (NNE)    
Max Wind Speed 22 mph    
Max Gust Speed 30 mph    
Visibility 10 miles    
Events      
Averages and records for this station are not official NWS values.
T = Trace of Precipitation, MM = Missing Value Source: NWS Daily Summary

Daily Weather History Graph

Daily Weather History Graph

Search for Another Location

Airport or City:

Trip Planner

Search our weather history database for the weather conditions in past years. The results will help you decide how hot, cold, wet, or windy it might be!

Date:

Astronomy

Feb. 28, 2014 Rise Set
Actual Time 6:39 AM EST 5:56 PM EST
Civil Twilight 6:12 AM EST 6:23 PM EST
Nautical Twilight 5:41 AM EST 6:54 PM EST
Astronomical Twilight 5:10 AM EST 7:25 PM EST
Moon 5:52 AM EST (2/28) 5:31 PM EST (2/28)
Length of Visible Light 12h 11m
Length of Day
11h 17m
Waning Crescent, 1% of the Moon is Illuminated
Feb 28
Waning Crescent
Mar 1
New
Mar 8
First Quarter
Mar 16
Full
Mar 23
Last Quarter

Hourly Weather History & Observations

Time (EST) Temp. Windchill Dew Point Humidity Pressure Visibility Wind Dir Wind Speed Gust Speed Precip Events Conditions
12:02 AM 21.2 °F 5.2 °F 3.2 °F 46% 30.14 in 10.0 mi North 21.9 mph 28.8 mph N/A   Clear
12:22 AM 21.2 °F 6.4 °F 1.4 °F 42% 30.17 in 10.0 mi NNW 18.4 mph 28.8 mph N/A   Clear
12:42 AM 19.4 °F 3.6 °F 1.4 °F 46% 30.18 in 10.0 mi North 19.6 mph 27.6 mph N/A   Clear
1:02 AM 19.4 °F 4.1 °F -0.4 °F 42% 30.18 in 10.0 mi North 18.4 mph 25.3 mph N/A   Clear
1:22 AM 19.4 °F 3.6 °F -2.2 °F 39% 30.21 in 10.0 mi North 19.6 mph 29.9 mph N/A   Clear
1:42 AM 19.4 °F 4.1 °F -4.0 °F 36% 30.21 in 10.0 mi NNW 18.4 mph 27.6 mph N/A   Clear
2:02 AM 19.4 °F 4.5 °F -4.0 °F 36% 30.22 in 10.0 mi North 17.3 mph 25.3 mph N/A   Clear
2:22 AM 17.6 °F 3.2 °F -2.2 °F 42% 30.23 in 10.0 mi NNW 15.0 mph 25.3 mph N/A   Clear
2:42 AM 17.6 °F 1.3 °F -4.0 °F 38% 30.23 in 10.0 mi North 19.6 mph 24.2 mph N/A   Clear
3:02 AM 17.6 °F 3.2 °F -2.2 °F 42% 30.24 in 10.0 mi North 15.0 mph 20.7 mph N/A   Clear
3:22 AM 17.6 °F 2.7 °F -4.0 °F 38% 30.25 in 10.0 mi NNW 16.1 mph 23.0 mph N/A   Clear
3:42 AM 17.6 °F 2.7 °F -4.0 °F 38% 30.26 in 10.0 mi NNW 16.1 mph 23.0 mph N/A   Clear
4:02 AM 17.6 °F 5.0 °F -4.0 °F 38% 30.28 in 10.0 mi NNW 11.5 mph 18.4 mph N/A   Clear
4:22 AM 17.6 °F 4.3 °F -5.8 °F 35% 30.29 in 10.0 mi North 12.7 mph 25.3 mph N/A   Clear
4:42 AM 15.8 °F 2.7 °F -5.8 °F 38% 30.30 in 10.0 mi NNW 11.5 mph 20.7 mph N/A   Clear
5:02 AM 15.8 °F 2.7 °F -7.6 °F 35% 30.32 in 10.0 mi North 11.5 mph 19.6 mph N/A   Clear
5:22 AM 15.8 °F 2.7 °F -5.8 °F 38% 30.33 in 10.0 mi North 11.5 mph 16.1 mph N/A   Clear
5:42 AM 15.8 °F 6.1 °F -5.8 °F 38% 30.34 in 10.0 mi North 6.9 mph - N/A   Clear
6:00 AM 15.8 °F 4.2 °F -5.8 °F 38% 30.34 in 10.0 mi North 9.2 mph - N/A   Clear
6:22 AM 14.0 °F 3.9 °F -5.8 °F 41% 30.36 in 10.0 mi North 6.9 mph - N/A   Clear
6:42 AM 14.0 °F 2.0 °F -5.8 °F 41% 30.37 in 10.0 mi North 9.2 mph 16.1 mph N/A   Clear
7:02 AM 14.0 °F 2.0 °F -5.8 °F 41% 30.38 in 10.0 mi North 9.2 mph - N/A   Clear
7:22 AM 15.8 °F 6.1 °F -5.8 °F 38% 30.39 in 10.0 mi NNW 6.9 mph - N/A   Clear
7:42 AM 17.6 °F 4.3 °F -5.8 °F 35% 30.39 in 10.0 mi NNW 12.7 mph 17.3 mph N/A   Clear
8:02 AM 17.6 °F 6.4 °F -7.6 °F 32% 30.41 in 10.0 mi North 9.2 mph - N/A   Clear
8:22 AM 17.6 °F 8.2 °F -5.8 °F 35% 30.43 in 10.0 mi North 6.9 mph - N/A   Clear
10:03 AM 19.4 °F 9.5 °F -5.8 °F 33% 30.45 in 10.0 mi North 8.1 mph - N/A   Clear
10:43 AM 19.4 °F 8.6 °F -5.8 °F 33% 30.46 in 10.0 mi North 9.2 mph - N/A   Clear
11:03 AM 19.4 °F 10.4 °F -5.8 °F 33% 30.46 in 10.0 mi NNW 6.9 mph - N/A   Clear
11:23 AM 19.4 °F 10.4 °F -7.6 °F 30% 30.46 in 10.0 mi North 6.9 mph - N/A   Clear
11:43 AM 21.2 °F 10.9 °F -5.8 °F 30% 30.46 in 10.0 mi NNW 9.2 mph - N/A   Clear
12:03 PM 21.2 °F 12.6 °F -5.8 °F 30% 30.46 in 10.0 mi NNW 6.9 mph - N/A   Clear
12:23 PM 21.2 °F 12.6 °F -5.8 °F 30% 30.44 in 10.0 mi North 6.9 mph - N/A   Clear
12:43 PM 21.2 °F 11.7 °F -7.6 °F 28% 30.44 in 10.0 mi North 8.1 mph - N/A   Clear
1:03 PM 21.2 °F 14.9 °F -11.2 °F 24% 30.43 in 10.0 mi North 4.6 mph - N/A   Clear
1:23 PM 23.0 °F 18.4 °F -18.4 °F 15% 30.43 in 10.0 mi ENE 3.5 mph - N/A   Clear
1:43 PM 23.0 °F 17.0 °F -14.8 °F 18% 30.41 in 10.0 mi NNW 4.6 mph - N/A   Clear
2:03 PM 24.8 °F 20.5 °F -13.0 °F 19% 30.41 in 10.0 mi North 3.5 mph - N/A   Clear
2:23 PM 24.8 °F - -13.0 °F 19% 30.41 in 10.0 mi Calm Calm - N/A   Clear
2:43 PM 24.8 °F 16.1 °F -9.4 °F 22% 30.40 in 10.0 mi East 8.1 mph - N/A   Clear
3:03 PM 26.6 °F 20.0 °F -9.4 °F 21% 30.40 in 10.0 mi NNE 5.8 mph - N/A   Clear
3:23 PM 26.6 °F 22.6 °F -9.4 °F 21% 30.40 in 10.0 mi ENE 3.5 mph - N/A   Clear
3:43 PM 26.6 °F 21.2 °F -7.6 °F 22% 30.41 in 10.0 mi NE 4.6 mph - N/A   Clear
4:03 PM 26.6 °F 22.6 °F -7.6 °F 22% 30.40 in 10.0 mi NNE 3.5 mph - N/A   Clear
4:23 PM 26.6 °F - -7.6 °F 22% 30.40 in 10.0 mi Calm Calm - N/A   Clear
4:43 PM 24.8 °F - -7.6 °F 24% 30.40 in 10.0 mi Calm Calm - N/A   Clear
5:04 PM 24.8 °F 20.5 °F -9.4 °F 22% 30.40 in 10.0 mi SE 3.5 mph - N/A   Clear
5:24 PM 24.8 °F 19.1 °F -9.4 °F 22% 30.40 in 10.0 mi ESE 4.6 mph - N/A   Clear
5:44 PM 23.0 °F - -9.4 °F 24% 30.40 in 10.0 mi Calm Calm - N/A   Clear
6:04 PM 23.0 °F - -9.4 °F 24% 30.41 in 10.0 mi Calm Calm - N/A   Clear
6:24 PM 23.0 °F 18.4 °F -5.8 °F 28% 30.41 in 10.0 mi SE 3.5 mph - N/A   Clear
6:44 PM 23.0 °F - -5.8 °F 28% 30.41 in 10.0 mi Calm Calm - N/A   Clear
7:04 PM 23.0 °F - -4.0 °F 31% 30.40 in 10.0 mi Calm Calm - N/A   Clear
7:24 PM 23.0 °F - -4.0 °F 31% 30.40 in 10.0 mi Calm Calm - N/A   Clear
7:44 PM 23.0 °F - -4.0 °F 31% 30.40 in 10.0 mi Calm Calm - N/A   Clear
8:04 PM 23.0 °F - -4.0 °F 31% 30.40 in 10.0 mi Calm Calm - N/A   Clear
8:24 PM 23.0 °F - -4.0 °F 31% 30.40 in 10.0 mi Calm Calm - N/A   Clear
8:44 PM 23.0 °F - -0.4 °F 36% 30.40 in 10.0 mi Calm Calm - N/A   Clear
9:04 PM 23.0 °F 18.4 °F 1.4 °F 39% 30.41 in 10.0 mi ESE 3.5 mph - N/A   Clear
9:24 PM 23.0 °F 17.0 °F 1.4 °F 39% 30.41 in 10.0 mi East 4.6 mph - N/A   Clear
9:44 PM 23.0 °F 17.0 °F 1.4 °F 39% 30.41 in 10.0 mi East 4.6 mph - N/A   Clear
10:04 PM 23.0 °F 15.8 °F 1.4 °F 39% 30.41 in 10.0 mi East 5.8 mph - N/A   Clear
10:24 PM 23.0 °F 18.4 °F 1.4 °F 39% 30.41 in 10.0 mi East 3.5 mph - N/A   Clear
10:44 PM 21.2 °F 14.9 °F 3.2 °F 46% 30.41 in 10.0 mi East 4.6 mph - N/A   Clear
11:04 PM 23.0 °F 17.0 °F 3.2 °F 43% 30.41 in 10.0 mi ESE 4.6 mph - N/A   Clear
11:24 PM 23.0 °F 13.9 °F 6.8 °F 50% 30.42 in 10.0 mi SE 8.1 mph - N/A   Clear
11:44 PM 23.0 °F 13.1 °F 5.0 °F 46% 30.42 in 10.0 mi SE 9.2 mph - N/A   Clear